"Pseudo-MPEC" for A10kJYC

Created 2020 Feb 28 3:07:03 UT using Find_Orb

Click here for an explanation of pseudo-MPECs

 
 Astrometry: 
     A10kJYC  C2020 02 26.48408511 38 27.31 +27 49 56.9    ~2QKq 19.33oVNEOCPT08
     A10kJYC  C2020 02 26.48932911 38 24.24 +27 47 16.2    ~2QKq 17.57oVNEOCPT08
     A10kJYC  C2020 02 26.49232711 38 22.63 +27 45 49.2    ~2QKq 18.34oVNEOCPT08
     A10kJYC  C2020 02 26.50626511 38 14.69 +27 38 48.8    ~2QKq 19.11oVNEOCPT08
     A10kJYC  C2020 02 26.52845111 38 02.15 +27 27 40.7    ~2QKq 18.37oVNEOCPT08
     A10kJYC  C2020 02 26.53934511 37 56.06 +27 22 11.0    ~2QKq 19.12oVNEOCPT08
     A10kJYC  C2020 02 26.54936911 37 50.47 +27 17 09.7    ~2QKq 19.04oVNEOCPT08
     A10kJYC KC2020 02 27%DlIi'y[\5Rp'R0\W6mmy2s#/qym.En3C:\2A5mWKEM,R^h/t5VMK63
     A10kJYC KC2020 02 27HO+WF*$T)rAMf#9ala=`lI8Pl!$'1+)`6``ten$75+$lx?__^VPZK63
     A10kJYC KC2020 02 27lZn8-%C7@ZQTpO2bd=@1_JUCZUMAstrometry:H-@py(uCsoWJv1K63
     A10kJYC KC2020 02 27A%x)i;#T1b$g,9vYSDAN:tVj=O_tS5`N:^1^S4l?wK,]d\q'7EufK63
     A10kJYC KC2020 02 27U?)^YXlHr@=0RU=fG\=redacted;rB6%q.,b-[Nc!2!4jm\4yL@TK63
     A10kJYC KC2020 02 27.04353511 34 19.16 +23 10 06.5    ~2R1q 18.6 GVNEOCPC95
     A10kJYC KC2020 02 27.05092111 34 15.48 +23 06 27.8    ~2R1q 18.5 GVNEOCPC95
     A10kJYC KC2020 02 27C`$NHXeMOs3lZI@C$,E8vltltr(a*B?3DwRr'%_s_bm)f($PtSCUV01
     A10kJYC KC2020 02 27M;U/WpnS5'xgYJH^/ACrh8Bb=M7pplwe!,wLPa[((nRPRKPhnV6sV01
     A10kJYC  C2020 02 27.23603 11 33 09.75 +21 36 07.4    ~2R5q 18.2 GVNEOCPI52
     A10kJYC  C2020 02 27.23616 11 33 09.70 +21 36 03.3    ~2R5q 17.8 GVNEOCPI52
     A10kJYC  C2020 02 27.23629 11 33 09.65 +21 36 00.0    ~2R5q 18.3 GVNEOCPI52
     A10kJYC  C2020 02 27.23642 11 33 09.61 +21 35 55.9    ~2R5q 18.9 GVNEOCPI52
     A10kJYC KC2020 02 27Cc0m3DSW+*)_4EA=M5oXB1)ryw(Zh!WQeK?AILyTV\nj'5a/$WgBV01
     A10kJYC KC2020 02 27prvHUV603Av8`qbfppBSdg4SNCX_d2\5_X]:hs$!nTn/LclickVu734
     A10kJYC KC2020 02 27vr)khere_Dg;VMi/;NARB/%0sU$([4XW;Pa`5Y^t;)^8ofYG.BLb734
     A10kJYC KC2020 02 27SFq1(R`d;6%U%^9\XTe3lX(Xk*@4V)AV,_-,yK!6PVo4JQF$q3K)734
     A10kJYC KC2020 02 27]N$b0a]g;DPYM,I#?kfJ8EAKp$A-Su1o,LSMBwSD'2L36)*Uup%g734
     A10kJYC KC2020 02 27o!8?%4MX/8N;e[ha2u_9b1'x;1-j[2WQgIJG]wYG6abUB+TZUHvA734
     A10kJYC KC2020 02 27)t\:'LOn]Z5,+\j(7r#SM8C.syVo@_DVS%\]M?qc%yo_;`1sn_M,711
     A10kJYC KC2020 02 27\[%58O/QMe_R!Bt9CpBo/80@e$Y80sjQesa=Fx(xXk!axLp6\k!:711
     A10kJYC KC2020 02 27J9J@2nrRg3ogmKfO#x,n.Vx4hJqidB\ibH74Y!IFotfxwe*l?mq'711
     A10kJYC KC2020 02 27(_,(pv98fQMA0(j0QewPZb[Md,/GE;!'eQEYi1d,Nyw^P5XQ;u2BL04
     A10kJYC KC2020 02 279rQ:=F;DfliE\UcRa7Q8O\TegWb)TU!+ps,1=rXaqnpZF1KRJ4XeL04
     A10kJYC KC2020 02 27*E\bae=f!g9aRW30r*$h%SiWWDE6/O5kkw0anQ=[j$g!8xsvV;o[L04
     A10kJYC KC2020 02 27o8l\kFuRkf)(QSEfC#SE;Qrlb4;w]Sjc65Z602'Qo)YF6X24[e3QL04
     A10kJYC KC2020 02 27q+w3s800kTt[jTq@y+i\d5Mv!aX@t/kY,$-xi=iC7K3Evh?Os.f8J69
     A10kJYC KC2020 02 27w9hRFsN/daoCnm227UICI81hB^Q.P(G?[!?T)OrjDo_l'q)7tEZCJ69
     A10kJYC KC2020 02 277EfY]qg4yh-for4iLBLU;=T0FlM))GNcEebeyE\fY5/@JRml%aBVJ69
     A10kJYC KC2020 02 27LDK+!r3=S\RKr_.'Y2ZLX_)@[_FY*!?5]th=VtBOl']Nao.g'Gp!J69
     A10kJYC KC2020 02 27.91502311 28 43.70 +16 10 10.2    ~2S17 19.2 GVNEOCPZ80
     A10kJYC KC2020 02 27.92081011 28 41.26 +16 07 29.7    ~2S17 18.7 GVNEOCPZ80
     A10kJYC KC2020 02 27.92962 11 28 38.57 +16 03 46.6    ~2RMb 18.5 VqNEOCPI93
     A10kJYC KC2020 02 27.93223 11 28 37.47 +16 02 34.2    ~2RMb 18.7 VqNEOCPI93
     A10kJYC KC2020 02 27.93497 11 28 36.32 +16 01 17.7    ~2RMb 18.6 VqNEOCPI93
     A10kJYC KC2020 02 27(VGaL?kM^GbuA*8xX5'KdyW3ay:.opj%=QQ]v%uCAK?=q^Rx/obbZ99
     A10kJYC KC2020 02 27O#%CeO9U.1``H\?CZ:Hy@fp%nhg0+n9bM\NP)1;DKcD`:^/9Yuc8Z99
     A10kJYC KC2020 02 27m1Z[u?O4(VKVYU9Dp]oYms2+(dWiVKUk,P05?lkD$yHoS=(K0!^^Z99
     A10kJYC KC2020 02 27.98016911 28 16.65 +15 39 57.7    ~2RNq 18.7 GVNEOCPJ95
     A10kJYC KC2020 02 27.98172111 28 15.96 +15 39 14.7    ~2RNq 18.5 GVNEOCPJ95
     A10kJYC KC2020 02 27.98314011 28 15.39 +15 38 35.8    ~2RNq 18.4 GVNEOCPJ95
     A10kJYC KC2020 02 27.98439011 28 14.86 +15 38 00.4    ~2RNq 18.3 GVNEOCPJ95
     A10kJYC KC2020 02 28Z;-kf\LmFaf9-0;1c1Z2?wnDbI\X-l#.]CJspq@17YGNPd:0vYaj204
     A10kJYC HC2020 02 28##:`5G`($H?explanationHMmx3O6FH7Nxhbx!IC%']?^Yxc(re/204
     A10kJYC KC2020 02 28e)-R2wRZ5Z2kItCJxf)%Iub\N%FjMeM4q9f#t!]`F`[ie3VHlYKg204

Station data:
(204) Schiaparelli Observatory  (N45.867933 E8.770800)  Italy.  Observer L.
   Buzzi. 0.60-m f/4.64 Newtonian + CCD.
(711) McDonald Observatory, Fort Davis  (N30.671481 W104.021500)  US/Texas.
   0.76-m f/3.0 reflector.
(734) Farpoint Observatory, Eskridge  (N38.890107 W96.001400)  US/Kansas.
   Observer G. Hug. 0.69-m reflector + CCD.
(C95) SATINO Remote Observatory, Haute Provence  (N43.932042 E5.712390)
   France. 0.60-m f/3.2 Newtonian reflector + CCD.
(I52) Steward Observatory, Mt. Lemmon Station  (N32.442547 W110.788920)
   US/Arizona.  Observers T. A. Pruyne, B. M. Africano, E. J. Christensen, G.
   A. Farneth, D. C. Fuls, A. R. Gibbs, A. D. Grauer, H. Gröller, J. A.
   Johnson, R. A. Kowalski, S. M. Larson, G. J. Leonard, D. Rankin, R. L.
   Seaman, F. C. Shelly. 1.0-m reflector + CCD.
(I93) St Pardon de Conques  (N44.558710 W0.203000)  France.  Observer F.
   Losse. 0.40-m f/3.7 reflector + CCD.
(J69) North Observatory, Clanfield  (N50.938989 W1.019660)  UK.
(J95) Great Shefford  (N51.474969 W1.447003)  UK.  Observer P. Birtwhistle.
   0.40-m f/6.0 Schmidt-Cassegrain + CCD.
(K63) G. Pascoli Observatory, Castelvecchio Pascoli  (N44.082410 E10.462000)
   Italy.
(L04) ROASTERR-1 Observatory, Cluj-Napoca  (N46.820954 E23.596400)  Romania.
(T08) ATLAS-MLO, Mauna Loa  (N19.536152 W155.576050)  US/Hawaii.  Observers
   L. Denneau, A. Heinze, H. Weiland, J. Tonry, H. Flewelling, A.
   Fitzsimmons, D. Young, B. Stalder. Measurers L. Denneau, A. Heinze, J.
   Tonry. 0.5-m f/2.0 Schmidt + CCD.
(V01) Mountainville Observatory, Alpine  (N40.448904 W111.760890)  US/Utah.
(Z80) Northolt Branch Observatory  (N51.554661 W0.371920)  UK.  Observer G.
   Wells. Measurer D. Bamberger. 0.25-m f/8 Ritchey-Chrétien + CCD.
(Z99) Clixby Observatory, Cleethorpes  (N53.546062 W0.021260)  UK.

Orbital elements:  A10kJYC
   Perihelion 2020 Feb 1.953570 +/- 0.00961 TT = 22:53:08 (JD 2458881.453570)
Epoch 2020 Feb 28.0 TT = JDT 2458907.5   Earth MOID: 0.0364   AutoNEOCP
M  13.25440869 +/- 0.021            (J2000 ecliptic)
n   0.50887620 +/- 0.000647         Peri.  148.70001 +/- 0.007
a   1.55379821 +/- 0.00132          Node   340.50879 +/- 0.00041
e   0.3616581 +/- 0.00053           Incl.   14.05618 +/- 0.014
P   1.94/707.43d           H 25.0   G  0.15   U  7.8  
q 0.99185436 +/- 2.14e-5    Q 2.11574206 +/- 0.00261
From 52 observations 2020 Feb. 26-28 (37.7 hr); mean residual 0".51
Residuals in arcseconds: 
200226 T08  .21-  .53+    200227 I52  .57+  .32+    200227 J69  .02+  .33+    
200226 T08  1.2-  2.6-    200227 I52  .88+  .02-    200227 Z80  .19-  .34-    
200226 T08  .08+  .52+    200227 V01  .16+  .19-    200227 Z80  .91-  .32+    
200226 T08  .05-  .45-    200227 734  .32-  .50-    200227 I93  .39-  .07-    
200226 T08  .01-  .52+    200227 734  .22-  .72-    200227 I93  .34-  .13+    
200226 T08  .28+  .03-    200227 734  .26-  .74-    200227 I93  .18-  .16-    
200226 T08  .28+  1.9+    200227 734  .37-  .77-    200227 Z99  .09-  .08-    
200227 K63  .10-  .52-    200227 734  .40-  .68-    200227 Z99  .05-  .20-    
200227 K63  .32-  .25-    200227 711  .11+  .48+    200227 Z99  .15-  .05-    
200227 K63  .58-  .33-    200227 711  .41+  .48+    200227 J95  .17+  .21-    
200227 K63  .11+  .74+    200227 711  .56+  .59+    200227 J95  .33-  .07-    
200227 K63  .23-  .29-    200227 L04  .20+  .39+    200227 J95  .10+  .47+    
200227 C95  .37+  .47+    200227 L04  .33+  .12-    200227 J95  .08+  .19-    
200227 C95  .56+  .31+    200227 L04  .31+  .55-    200228 204  .12+  .06+    
200227 V01  .11-  .69+    200227 L04  .33+  .40-    200228 204  .06+  .12+    
200227 V01  .80-  .43-    200227 J69  .77+  .14-    200228 204  .05-  .01+    
200227 I52  .24+  .18+    200227 J69  .32+  1.0+    
200227 I52  .41+  .15-    200227 J69  .42-  .14-    

Ephemerides (geocentric):
Date (UTC) HH   RA              Dec         delta   r     elong  mag " sig PA
---- -- -- --  -------------   -----------  ------ ------ -----  --- ---- ---
2020 02 28 03  11 27 20.448   +14 35 22.30  .03837 1.0278 167.1 18.8 .198 151
2020 02 28 04  11 27 05.644   +14 16 16.74  .03844 1.0279 167.3 18.8 .202 151
2020 02 28 05  11 26 50.932   +13 57 15.32  .03851 1.0281 167.5 18.8 .205 151
2020 02 28 06  11 26 36.313   +13 38 18.09  .03858 1.0282 167.8 18.8 .208 150
2020 02 28 07  11 26 21.785   +13 19 25.10  .03866 1.0283 168.0 18.7 .212 150
2020 02 28 08  11 26 07.347   +13 00 36.41  .03873 1.0284 168.2 18.7 .215 150
2020 02 28 09  11 25 52.998   +12 41 52.06  .03881 1.0285 168.4 18.7 .217 149
2020 02 28 10  11 25 38.738   +12 23 12.10  .03889 1.0286 168.6 18.7 .220 149
2020 02 28 11  11 25 24.566   +12 04 36.59  .03896 1.0287 168.8 18.7 .223 149
2020 02 28 12  11 25 10.482   +11 46 05.56  .03904 1.0288 168.9 18.7 .226 148
2020 02 28 13  11 24 56.484   +11 27 39.06  .03913 1.0289 169.1 18.7 .228 148
2020 02 28 14  11 24 42.571   +11 09 17.13  .03921 1.0291 169.3 18.7 .231 147
2020 02 28 15  11 24 28.744   +10 50 59.82  .03929 1.0292 169.5 18.7 .233 147
2020 02 28 16  11 24 15.001   +10 32 47.16  .03938 1.0293 169.6 18.7 .235 147
2020 02 28 17  11 24 01.341   +10 14 39.19  .03946 1.0294 169.8 18.7 .238 146
2020 02 28 18  11 23 47.765   +09 56 35.95  .03955 1.0295 169.9 18.7 .240 146
2020 02 28 19  11 23 34.271   +09 38 37.47  .03964 1.0296 170.1 18.7 .242 145
2020 02 28 20  11 23 20.858   +09 20 43.78  .03973 1.0297 170.2 18.7 .244 145
2020 02 28 21  11 23 07.526   +09 02 54.93  .03982 1.0298 170.3 18.7 .246 145
2020 02 28 22  11 22 54.274   +08 45 10.93  .03991 1.0300 170.4 18.7 .248 144
2020 02 28 23  11 22 41.101   +08 27 31.83  .04001 1.0301 170.5 18.7 .249 144
